Regional Weather Roundup
Issued by NWS Albany, NY

Home | Current Version | Previous Version | Text Only | Print | Product List | Glossary On
Versions: 1 2 3 4 5 6 7 8 9 10 11 12 13 14 15 16 17 18 19 20 21 22 23 24 25 26 27 28
000
ASUS41 KALY 251610
RWRALY

NEW YORK STATE HOURLY WEATHER ROUNDUP
NATIONAL WEATHER SERVICE ALBANY NY
1100 AM EST SUN FEB 25 2018

NOTE: "FAIR" INDICATES FEW OR NO CLOUDS BELOW 12,000 FEET WITH NO
SIGNIFICANT WEATHER AND/OR NO OBSTRUCTIONS TO VISIBILITY.

NYZ032-033-038>043-046>054-057>066-NYZ062>081-082-084-251700-
EAST


CITY           SKY/WX    TMP DP  RH WIND       PRES   REMARKS
ALBANY         LGT RAIN  38  34  85 S14       30.02F WCI  30
GLENS FALLS    MIX PCPN  32  32 100 CALM      30.02F FOG
POUGHKEEPSIE   LGT RAIN  40  38  93 CALM      30.03F FOG
NEWBURGH       LGT RAIN  41  41 100 SE6       30.04F FOG
MONTGOMERY     LGT RAIN  40  38  93 NE6       30.01F
WHITE PLAINS   LGT RAIN  39  38  96 E17G30    30.00F FOG     WCI  30
ISLIP          LGT RAIN  43  42  97 E22G31    29.98F FOG
NEW YORK CITY  LGT RAIN  40  38  93 NE13      30.03R FOG     WCI  32
CENTRAL PARK   LGT RAIN  41  39  93 NE8       30.03F FOG
$$

NYZ005>009-017-018-044>046-055-056-251700-
CENTRAL


CITY           SKY/WX    TMP DP  RH WIND       PRES   REMARKS
FULTON         CLOUDY    40  37  89 SE9       29.77R WCI  34
SYRACUSE       CLOUDY    46  41  82 S16G25    29.80R
ROME           CLOUDY    38  35  89 SE17G26   29.89F WCI  28
ELMIRA         CLOUDY    47  42  83 SW12      29.84R
BINGHAMTON     CLOUDY    40  38  93 S7        29.86R
MONTICELLO     LGT RAIN  36  35  96 E14       29.96F WCI  27
$$

NYZ026>034-041>043-087-251700-
NORTH


CITY           SKY/WX    TMP DP  RH WIND       PRES   REMARKS
WATERTOWN      LGT RAIN  44  40  85 S21G32    29.69S FOG
FORT DRUM      NOT AVBL
OGDENSBURG     DRIZZLE   34  33  96 E3        29.72F
MASSENA        CLOUDY    33  33 100 E8        29.77F FOG     WCI  26
SARANAC LAKE   CLOUDY    36  31  82 S16G29    29.77F WCI  26
PLATTSBURGH    LGT RAIN  34  29  82 S29G40    29.92F WCI  20
$$

NYZ001>004-010>016-019>021-085-251700-
WEST


CITY           SKY/WX    TMP DP  RH WIND       PRES   REMARKS
NIAGARA FALLS  FAIR      47  39  74 SW25G39   29.72R
BUFFALO        PTSUNNY   43  37  79 SW33G48   29.75R
DUNKIRK        LGT RAIN  45  37  73 SW31G46   29.81R
JAMESTOWN        N/A    N/A N/A N/A MISG        N/A
WELLSVILLE     LGT RAIN  51  47  86 S14G22    29.77R FOG
ROCHESTER      LGT RAIN  52  48  86 SW16      29.71R
PENN YAN       CLOUDY    47  40  76 S17G24    29.77S
$$

             KEY
       WCI = WIND CHILL INDEX
       VSB = VISIBILITY
       HX  = HEAT INDEX
$$




USA.gov is the U.S. government's official web portal to all federal, state and local government web resources and services.